Sauk Centre, MN

12:24 PM CST on December 12, 2017 (GMT -0600)
Sauk Centre

Weather History for KD39 - May, 2014

Change the Weather History Date:

Monday, May 12, 2014

  Actual Average (KGHW) Record (KGHW)
Temperature  
Mean Temperature 48 °F -  
Max Temperature 53 °F 67 °F 89 °F (1988)
Min Temperature 45 °F 43 °F 28 °F (2013)
Degree Days  
Heating Degree Days 16    
Moisture  
Dew Point 47 °F    
Average Humidity 94    
Maximum Humidity 98    
Minimum Humidity 84    
Precipitation  
Precipitation 0.13 in - - ()
Sea Level Pressure  
Sea Level Pressure 29.78 in    
Wind  
Wind Speed 11 mph (NNW)    
Max Wind Speed 18 mph    
Max Gust Speed 26 mph    
Visibility 6 miles    
Events Rain    
Averages and records for this station are not official NWS values.
T = Trace of Precipitation, MM = Missing Value Source: NWS Daily Summary

Daily Weather History Graph

Daily Weather History Graph

Search for Another Location

Airport or City:

Trip Planner

Search our weather history database for the weather conditions in past years. The results will help you decide how hot, cold, wet, or windy it might be!

Date:

Astronomy

May. 12, 2014 Rise Set
Actual Time 5:52 AM CDT 8:40 PM CDT
Civil Twilight 5:17 AM CDT 9:15 PM CDT
Nautical Twilight 4:34 AM CDT 9:59 PM CDT
Astronomical Twilight 3:42 AM CDT 10:50 PM CDT
Moon 6:33 PM CDT 4:39 AM CDT
Length of Visible Light 15h 57m
Length of Day
14h 48m
Waxing Gibbous, 95% of the Moon is Illuminated
May 12
Waxing Gibbous
May 14
Full
May 21
Last Quarter
May 28
New
Jun 5
First Quarter

Hourly Weather History & Observations

Time (CDT) Temp. Windchill Dew Point Humidity Pressure Visibility Wind Dir Wind Speed Gust Speed Precip Events Conditions
12:11 AM 52.7 °F - 50.5 °F 92% 29.80 in 10.0 mi North 16.1 mph - 0.02 in Rain Rain
12:32 AM 52.3 °F - 50.7 °F 94% 29.80 in 10.0 mi North 12.7 mph - 0.02 in Rain Light Rain
12:52 AM 52.7 °F - 50.9 °F 94% 29.81 in 10.0 mi North 12.7 mph 20.7 mph 0.03 in Rain Light Rain
1:11 AM 52.7 °F - 51.1 °F 94% 29.81 in 10.0 mi North 12.7 mph 17.3 mph N/A Rain Light Rain
1:32 AM 52.9 °F - 51.3 °F 94% 29.80 in 10.0 mi NNE 9.2 mph - N/A   Overcast
1:52 AM 52.9 °F - 50.5 °F 92% 29.77 in 10.0 mi NNE 15.0 mph 20.7 mph N/A Rain Light Rain
2:11 AM 51.8 °F - 49.6 °F 92% 29.75 in 10.0 mi NE 16.1 mph 21.9 mph N/A Rain Light Rain
2:32 AM 50.4 °F - 48.6 °F 94% 29.74 in 10.0 mi ENE 15.0 mph 24.2 mph N/A   Light Drizzle
2:52 AM 50.2 °F - 48.4 °F 94% 29.75 in 10.0 mi NE 10.4 mph 16.1 mph N/A   Overcast
3:12 AM 50.0 °F - 48.2 °F 94% 29.76 in 10.0 mi North 8.1 mph - N/A   Overcast
3:32 AM 49.6 °F - 47.8 °F 94% 29.76 in 10.0 mi North 9.2 mph - N/A   Overcast
3:52 AM 49.5 °F - 47.7 °F 94% 29.75 in 10.0 mi North 10.4 mph - N/A Rain Rain
4:12 AM 49.1 °F - 47.5 °F 94% 29.75 in 10.0 mi North 6.9 mph - N/A Rain Rain
4:32 AM 49.1 °F - 47.7 °F 95% 29.75 in 10.0 mi NNE 8.1 mph - 0.01 in   Drizzle
4:52 AM 49.1 °F - 48.2 °F 97% 29.75 in 5.0 mi North 6.9 mph - 0.01 in   Drizzle
5:12 AM 49.1 °F - 48.2 °F 97% 29.76 in 4.0 mi North 4.6 mph - N/A Rain Rain
5:32 AM 49.1 °F - 48.2 °F 97% 29.76 in 4.0 mi North 5.8 mph - N/A   Heavy Drizzle
5:51 AM 48.7 °F - 48.2 °F 98% 29.76 in 3.0 mi North 5.8 mph - 0.04 in Rain Rain
6:12 AM 48.7 °F - 48.2 °F 98% 29.75 in 3.0 mi North 6.9 mph - 0.01 in   Drizzle
6:32 AM 48.6 °F - 47.8 °F 97% 29.75 in 2.0 mi North 8.1 mph - 0.01 in Rain Light Rain
6:51 AM 48.6 °F - 47.8 °F 97% 29.76 in 2.0 mi North 9.2 mph - 0.01 in Rain Light Rain
7:12 AM 48.4 °F - 47.8 °F 98% 29.76 in 1.5 mi North 6.9 mph - N/A   Overcast
7:32 AM 48.2 °F - 47.7 °F 98% 29.74 in 2.0 mi North 9.2 mph - N/A   Overcast
7:51 AM 48.2 °F - 47.5 °F 97% 29.74 in 2.5 mi North 11.5 mph 16.1 mph N/A   Overcast
8:12 AM 48.2 °F - 47.3 °F 97% 29.76 in 5.0 mi North 9.2 mph - N/A   Overcast
8:32 AM 48.2 °F - 47.3 °F 97% 29.76 in 4.0 mi North 5.8 mph - N/A   Overcast
9:32 AM 48.0 °F - 46.9 °F 96% 29.79 in 4.0 mi North 6.9 mph - N/A   Overcast
9:52 AM 48.2 °F - 47.3 °F 97% 29.79 in 2.0 mi North 5.8 mph - N/A   Overcast
10:12 AM 48.2 °F - 47.5 °F 97% 29.78 in 3.0 mi NNW 5.8 mph - N/A   Overcast
10:31 AM 48.4 °F - 47.7 °F 97% 29.78 in 3.0 mi NNW 6.9 mph - N/A   Overcast
10:52 AM 48.6 °F - 47.8 °F 97% 29.77 in 3.0 mi North 8.1 mph - N/A   Overcast
11:12 AM 48.9 °F - 47.7 °F 95% 29.78 in 3.0 mi NNW 6.9 mph - N/A   Overcast
11:31 AM 49.1 °F - 47.7 °F 95% 29.79 in 3.0 mi North 6.9 mph - N/A   Overcast
11:52 AM 49.1 °F - 47.8 °F 95% 29.79 in 3.0 mi NNW 8.1 mph - N/A   Overcast
12:12 PM 49.5 °F - 48.4 °F 96% 29.79 in 4.0 mi NNW 5.8 mph - N/A   Overcast
12:31 PM 49.5 °F - 48.2 °F 95% 29.79 in 2.5 mi North 5.8 mph - N/A   Overcast
12:52 PM 50.0 °F - 48.7 °F 95% 29.77 in 2.5 mi NW 9.2 mph - N/A   Overcast
1:12 PM 49.8 °F - 48.6 °F 95% 29.77 in 5.0 mi NNW 9.2 mph - N/A   Overcast
1:31 PM 50.2 °F - 48.6 °F 94% 29.77 in 5.0 mi NNW 8.1 mph - N/A   Overcast
1:52 PM 50.4 °F - 48.6 °F 94% 29.77 in 7.0 mi NNW 10.4 mph - N/A   Overcast
2:31 PM 49.8 °F - 48.2 °F 94% 29.77 in 7.0 mi NW 10.4 mph - N/A   Overcast
2:52 PM 49.6 °F - 47.8 °F 94% 29.78 in 5.0 mi NW 10.4 mph - N/A Rain Light Rain
3:12 PM 49.5 °F - 47.8 °F 94% 29.79 in 5.0 mi NW 10.4 mph 16.1 mph 0.02 in Rain Rain
3:31 PM 48.6 °F - 47.5 °F 96% 29.79 in 7.0 mi NW 11.5 mph 16.1 mph 0.02 in   Light Drizzle
3:52 PM 47.5 °F - 46.6 °F 97% 29.78 in 2.5 mi NNW 10.4 mph - 0.02 in Rain Light Rain
4:12 PM 47.1 °F - 45.9 °F 95% 29.78 in 2.5 mi NW 11.5 mph - 0.01 in   Heavy Drizzle
4:32 PM 46.8 °F - 45.7 °F 96% 29.79 in 2.5 mi NW 11.5 mph - 0.01 in Rain Rain
4:52 PM 46.4 °F 40.4 °F 45.3 °F 96% 29.79 in 2.0 mi NW 13.8 mph - 0.01 in Rain Rain
5:12 PM 46.4 °F 41.1 °F 45.0 °F 95% 29.79 in 7.0 mi NW 11.5 mph - N/A Rain Light Rain
5:32 PM 46.4 °F 40.7 °F 45.1 °F 95% 29.79 in 3.0 mi WNW 12.7 mph - N/A   Drizzle
5:52 PM 46.0 °F 40.6 °F 44.6 °F 95% 29.79 in 5.0 mi WNW 11.5 mph - N/A   Light Drizzle
6:12 PM 46.0 °F 39.6 °F 44.6 °F 95% 29.80 in 7.0 mi WNW 15.0 mph 19.6 mph N/A Rain Rain
6:32 PM 46.0 °F 40.6 °F 44.6 °F 95% 29.82 in 7.0 mi WNW 11.5 mph 17.3 mph 0.01 in   Light Drizzle
6:52 PM 45.7 °F 38.6 °F 44.4 °F 95% 29.79 in 2.5 mi NW 17.3 mph - 0.01 in Rain Light Rain
7:11 PM 45.5 °F 38.6 °F 44.1 °F 95% 29.79 in 4.0 mi NW 16.1 mph 21.9 mph N/A Rain Light Rain
7:32 PM 45.5 °F 39.2 °F 44.2 °F 95% 29.80 in 5.0 mi NW 13.8 mph 18.4 mph N/A   Overcast
7:52 PM 45.5 °F 38.6 °F 43.9 °F 94% 29.80 in 10.0 mi NW 16.1 mph 21.9 mph N/A   Overcast
8:11 PM 45.5 °F 39.6 °F 43.7 °F 93% 29.82 in 10.0 mi WNW 12.7 mph 17.3 mph N/A   Overcast
8:52 PM 45.7 °F 39.1 °F 43.7 °F 93% 29.81 in 10.0 mi NW 15.0 mph 23.0 mph N/A   Overcast
9:12 PM 45.7 °F 38.8 °F 43.7 °F 93% 29.81 in 10.0 mi WNW 16.1 mph 21.9 mph N/A   Overcast
9:32 PM 45.7 °F 39.1 °F 43.7 °F 93% 29.81 in 10.0 mi WNW 15.0 mph 20.7 mph N/A   Overcast
10:32 PM 45.7 °F 39.5 °F 42.8 °F 90% 29.83 in 10.0 mi NW 13.8 mph 23.0 mph N/A   Overcast
10:51 PM 45.5 °F 38.1 °F 41.4 °F 85% 29.83 in 10.0 mi NW 18.4 mph 26.5 mph N/A   Overcast
11:12 PM 45.1 °F 38.4 °F 41.2 °F 86% 29.84 in 10.0 mi NW 15.0 mph - N/A   Overcast
11:31 PM 45.0 °F 37.6 °F 40.5 °F 84% 29.84 in 10.0 mi NW 17.3 mph 25.3 mph N/A   Overcast
11:52 PM 45.0 °F 38.5 °F 40.6 °F 85% 29.85 in 10.0 mi WNW 13.8 mph 26.5 mph N/A   Overcast